This demonstration page uses our WeatherBlox Daily Observations layout. Learn more.

Left ArrowRight Arrow

Hourly Observations for December 25, 2016

Temp ( °F °C ) Dew Point ( °F °C ) Humidity (%) Winds ( mph kmh ) Pressure ( in mb ) Visibility ( mi km ) Precip ( " mm )
12:53 am 00:53 Cloudy with Light Snow 10 -12.2 5 -15 80 80 E 18 30 30.05 1018 7 11 0.00 0.03
1:53 am 01:53 Cloudy with Light Snow 9 -12.8 5 -15 84 84 ENE 17 28 30.06 1018 4 6 0.00 0.03
2:14 am 02:14 Cloudy with Light Snow 9 -13 3 -16 78 78 ENE 16 26 30.18 1022 5 8 0.00 0.00
2:53 am 02:53 Cloudy with Light Snow 8 -13.3 4 -15.6 83 83 ENE 17 28 30.07 1018 9 14 0.00 0.03
3:53 am 03:53 Cloudy with Light Snow 8 -13.3 4 -15.6 83 83 NE 13 20 30.09 1019 9 14 0.00 0.03
4:53 am 04:53 Cloudy with Light Snow 8 -13.3 3 -16.1 80 80 ENE 6 9 30.12 1020 3 5 0.00 0.03
5:53 am 05:53 Cloudy 8 -13.3 3 -16.1 80 80 Calm 30.12 1020 9 14 0.00 0.03
6:53 am 06:53 Cloudy 8 -13.3 3 -16.1 80 80 Calm 30.11 1020 10 16 0.00 0.03
7:51 am 07:51 Cloudy with Light Snow 7 -14 3 -16 85 85 SW 6 9 30.27 1025 4 6 0.00 0.03
7:53 am 07:53 Cloudy with Light Snow 7 -13.9 3 -16.1 84 84 SW 6 9 30.14 1021 4 6 0.00 0.03
8:12 am 08:12 Cloudy 7 -14 3 -16 85 85 WSW 7 11 30.27 1025 10 16 0.00 0.00
8:53 am 08:53 Mostly Cloudy 8 -13.3 4 -15.6 83 83 W 12 19 30.16 1021 10 16 0.00 0.03
9:01 am 09:01 Cloudy 8 -13.3 4 -15.6 83 83 W 12 19 30.27 1025 10 16 0.00 0.00
9:38 am 09:38 Mostly Cloudy 9 -13 1 -17 72 72 WNW 10 17 30.30 1026 10 16 0.00 0.00
9:53 am 09:53 Partly Cloudy 7 -13.9 2 -16.7 80 80 WNW 10 17 30.17 1022 10 16 0.00 0.00
10:53 am 10:53 Cloudy 7 -13.9 1 -17.2 76 76 W 15 24 30.18 1022 10 16 0.00 0.00
11:53 am 11:53 Cloudy 6 -14.4 1 -17.2 79 79 WNW 10 17 30.20 1023 10 16 0.00 0.00
12:53 pm 12:53 Cloudy 7 -13.9 1 -17.2 76 76 WNW 14 22 30.17 1022 7 11 0.00 0.03
1:53 pm 13:53 Cloudy 8 -13.3 1 -17.2 73 73 WNW 20 31 30.15 1021 10 16 0.00 0.00
2:53 pm 14:53 Cloudy 8 -13.3 2 -16.7 76 76 WNW 17 28 30.17 1022 10 16 0.00 0.00
3:53 pm 15:53 Cloudy 8 -13.3 1 -17.2 73 73 WNW 15 24 30.19 1022 10 16 0.00 0.00
4:53 pm 16:53 Cloudy 7 -13.9 1 -17.2 76 76 NW 17 28 30.21 1023 10 16 0.00 0.00
5:53 pm 17:53 Cloudy 7 -13.9 2 -16.7 80 80 WNW 15 24 30.19 1022 10 16 0.00 0.00
6:53 pm 18:53 Cloudy 7 -13.9 1 -17.2 76 76 WNW 12 19 30.21 1023 10 16 0.00 0.00
7:53 pm 19:53 Cloudy 7 -13.9 1 -17.2 76 76 WNW 13 20 30.22 1023 10 16 0.00 0.00
8:53 pm 20:53 Cloudy 7 -13.9 1 -17.2 76 76 WNW 13 20 30.19 1022 10 16 0.00 0.00
9:53 pm 21:53 Cloudy 7 -13.9 1 -17.2 76 76 WNW 12 19 30.19 1022 10 16 0.00 0.00
10:53 pm 22:53 Cloudy 7 -13.9 1 -17.2 76 76 WNW 9 15 30.19 1023 10 16 0.00 0.00
11:53 pm 23:53 Cloudy 7 -13.9 2 -16.7 80 80 W 9 15 30.18 1022 10 16 0.00 0.00

Powered by AerisWeather